This is the latest recevied weather packets stored in our database for station/object KF7SOJ. If no packets are shown the sender has not sent any weather packets the latest 10 day(s).
| Time | Temp. | Humidity | Pressure | Rain* | Wind** | Luminosity | Snow |
|---|---|---|---|---|---|---|---|
| 1788265615 | 11.11° C | 62% | 930.4 hPa | 0 mm | - | 1 W/m² | - |
| 1788265303 | 11.67° C | 61% | 930.4 hPa | 0 mm | - | 0 W/m² | - |
| 1788264997 | 11.67° C | 59% | 930.6 hPa | 0 mm | - | 0 W/m² | - |
| 1788264693 | 11.67° C | 60% | 930.7 hPa | 0 mm | - | 0 W/m² | - |
| 1788264392 | 12.22° C | 58% | 930.3 hPa | 0 mm | - | 0 W/m² | - |
| 1788264087 | 12.22° C | 58% | 930.4 hPa | 0 mm | - | 0 W/m² | - |
| 1788263783 | 12.78° C | 54% | 930.5 hPa | 0 mm | - | 0 W/m² | - |
| 1788263479 | 13.33° C | 52% | 930.6 hPa | 0 mm | - | 0 W/m² | - |
| 1788263176 | 13.33° C | 51% | 930.5 hPa | 0 mm | - | 0 W/m² | - |
| 1788262874 | 13.33° C | 53% | 930.3 hPa | 0 mm | - | 0 W/m² | - |
| 1788262574 | 12.78° C | 53% | 930.3 hPa | 0 mm | - | 0 W/m² | - |
| 1788262269 | 12.78° C | 53% | 930.5 hPa | 0 mm | - | 0 W/m² | - |
| 1788261969 | 13.33° C | 52% | 930.6 hPa | 0 mm | - | 0 W/m² | - |
| 1788261663 | 13.89° C | 51% | 930.4 hPa | 0 mm | - | 0 W/m² | - |
| 1788261363 | 13.89° C | 50% | 930.3 hPa | 0 mm | - | 0 W/m² | - |
| 1788261061 | 13.89° C | 49% | 930.4 hPa | 0 mm | - | 0 W/m² | - |
| 1788260757 | 14.44° C | 49% | 930.5 hPa | 0 mm | - | 0 W/m² | - |
| 1788260465 | 13.89° C | 49% | 930.5 hPa | 0 mm | - | 0 W/m² | - |
| 1788260149 | 13.89° C | 50% | 930.4 hPa | 0 mm | - | 0 W/m² | - |
| 1788259848 | 13.89° C | 51% | 930.7 hPa | 0 mm | - | 0 W/m² | - |
| 1788259550 | 13.89° C | 50% | 930.5 hPa | 0 mm | - | 0 W/m² | - |
| 1788259240 | 14.44° C | 49% | 930.5 hPa | 0 mm | - | 0 W/m² | - |
| 1788258939 | 14.44° C | 49% | 930.4 hPa | 0 mm | - | 0 W/m² | - |
| 1788258640 | 14.44° C | 49% | 930.5 hPa | 0 mm | - | 0 W/m² | - |
| 1788258336 | 13.89° C | 49% | 930.6 hPa | 0 mm | - | 0 W/m² | - |
* Rain latest hour (hover to see other rain measurements)
** Current wind speed in m/s (hover to see current wind gust speed)